Back to catalog

STARLINK-37232

AliveCommunicationsVLEO
NORAD 69515·PAYLOAD·🇺🇸 United States

Launched Jun 12, 2026 from Cape Canaveral Space Force Station

Loading…

Next Passes (next 24 hours)

TLE

FreshSource: CelesTrak SupGP

Epoch: Sep 14, 2026, 14:40 UTC

1 69515C 26133H   26257.61159722 -.00024530  00000+0 -72495-3 0  2578
2 69515  53.1562 257.3554 0001485  84.0801  93.8674 15.34393607    19

Track STARLINK-37232 in real time with AllMySat

Download on the App Store